Station HRBM4 - 9075014 - Harbor Beach, MI Image indicating link to RSS feed of recent meteorological observations for station HRBM4


Conditions at HRBM4 as of
(10:00 pm EDT on 07/13/2024)
0200 GMT on 07/14/2024:
     

Click on the graph icon in the table below to see a time series plot of the last five days of that observation.

5-day plot - Wind Direction Wind Direction (WDIR):SSW ( 200 deg true )
5-day plot - Wind Speed Wind Speed (WSPD): 8.0 kts
5-day plot - Wind Gust Wind Gust (GST): 8.9 kts
5-day plot - Atmospheric Pressure Atmospheric Pressure (PRES):30.08 in
5-day plot - Pressure Tendency Pressure Tendency (PTDY):-0.02 in ( Falling )
5-day plot - Air Temperature Air Temperature (ATMP): 73.8 °F
5-day plot - Water Temperature Water Temperature (WTMP): 68.0 °F
5-day plot - Dew Point Dew Point (DEWP): 62.2 °F
5-day plot - Wind Speed at 10 Meters Wind Speed at 10 meters (WSPD10M): 7.8 kts
5-day plot - Wind Speed at 20 Meters Wind Speed at 20 meters (WSPD20M): 9.7 kts
5-day plot -  Wind Speed, Wind Gust and Atmospheric Pressure Combined plot of Wind Speed, Gust, and Air Pressure
NOS Water Level Observation Network Water Level
Previous observations
TIME
(EDT)
5-day plot - Wind Direction
WDIR
 
5-day plot - Wind Speed
WSPD
kts
5-day plot - Wind Gust
GST
kts
5-day plot - Wave Height
WVHT
ft
5-day plot - Dominant Wave Period
DPD
sec
5-day plot - Average Wave Period
APD
sec
5-day plot - Mean Wave Direction
MWD
 
5-day plot - Atmospheric Pressure
PRES
in
5-day plot - Pressure Tendency
PTDY
in
5-day plot - Air Temperature
ATMP
°F
5-day plot - Water Temperature
WTMP
°F
5-day plot - Dew Point
DEWP
°F
5-day plot - Salinity
SAL
psu
5-day plot - Visibility
VIS
nmi
5-day plot - Tide (above MLLW)
TIDE
ft
2024-07-13 09:54 pmSSW 8.0 8.9----30.08- 73.9 68.0 62.4---
2024-07-13 09:48 pmSSW 7.0 8.9----30.08-- 68.0----
2024-07-13 09:42 pmSSW 8.0 8.9----30.08-- 68.0----
2024-07-13 09:36 pm S 7.0 8.9----30.08-- 68.2----
2024-07-13 09:30 pm S 7.0 8.9----30.08- 75.0 68.0 61.0---
2024-07-13 09:24 pm S 7.0 8.9----30.08- 75.4 68.2 60.6---
2024-07-13 09:18 pm S 6.0 8.0----30.07-- 68.0----
2024-07-13 09:12 pm S 6.0 8.0----30.08-- 68.2----
2024-07-13 09:06 pm S 7.0 8.0----30.08-- 68.2----
2024-07-13 09:00 pm S 8.0 8.9----30.08-0.03 76.1 68.0 61.2---
2024-07-13 08:54 pm S 8.0 9.9----30.08- 75.9 68.0 62.6---
2024-07-13 08:48 pm S 8.0 9.9------- 68.0----
2024-07-13 08:42 pm S 8.0 11.1------- 68.0----
2024-07-13 08:36 pm S 8.0 9.9------- 68.0----
2024-07-13 08:30 pm S 8.9 11.1----30.09- 76.8 68.0 62.2---
2024-07-13 08:24 pm S 8.0 11.1----30.09- 75.9 68.0 63.5---
2024-07-13 08:18 pm S 7.0 8.0----30.09- 76.3 68.0 63.5---
2024-07-13 08:12 pm S 8.0 9.9----30.09- 76.3 68.0 63.7---
2024-07-13 08:06 pm S 8.9 11.1----30.09- 75.9 68.0 64.2---
2024-07-13 08:00 pm S 8.0 11.1----30.09-0.03 76.3 68.0 64.2---
2024-07-13 07:54 pm S 8.9 11.1----30.09- 75.9 68.0 65.1---
2024-07-13 07:48 pmSSE 8.9 11.1----30.09- 75.6 68.0 65.8---
2024-07-13 07:42 pmSSE 8.9 11.1----30.10- 75.2 68.0 66.2---
2024-07-13 07:36 pmSSE 8.9 9.9----30.09- 74.3 68.0 67.8---
2024-07-13 07:30 pmSSE 8.9 11.1----30.09- 74.7 68.0 66.9---
2024-07-13 07:24 pmSSE 8.9 9.9----30.10- 75.2 68.0 66.7---
2024-07-13 07:18 pmSSE 8.9 9.9----30.10- 74.5 68.0 66.9---
2024-07-13 07:12 pmSSE 8.0 8.9----30.10- 74.5 68.0 67.3---
2024-07-13 07:06 pmSSE 8.0 9.9----30.10- 74.8 68.0 66.9---
2024-07-13 07:00 pmSSE 8.9 12.0----30.10-0.04 74.5 68.0 67.5---
2024-07-13 06:54 pmSSE 8.9 12.0----30.10- 74.7 68.0 67.3---
2024-07-13 06:48 pmSSE 9.9 13.0----30.10- 75.0 68.0 66.2---
2024-07-13 06:42 pm S 11.1 13.0----30.10- 76.8 68.0 65.5---
2024-07-13 06:36 pmSSE 9.9 11.1----30.10- 74.8 68.0 67.5---
2024-07-13 06:30 pmSSE 9.9 11.1----30.11-- 68.0----
2024-07-13 06:24 pmSSE 8.0 9.9----30.11-- 68.0----
2024-07-13 06:18 pmSSE 7.0 8.9----30.11- 74.5 68.0 68.4---
2024-07-13 06:12 pmSSE 7.0 8.9----30.11- 73.6 68.0 68.2---
2024-07-13 06:06 pmSSE 8.9 9.9----30.11- 73.8 68.0 68.4---
2024-07-13 06:00 pm SE 8.0 8.9----30.11-0.04 73.2 68.2----
2024-07-13 05:54 pm SE 7.0 8.0----30.11- 73.0 68.0----
2024-07-13 05:48 pmSSE 8.9 9.9----30.12- 73.2 68.2 68.2---
2024-07-13 05:42 pm SE 7.0 8.9----30.12- 73.2 68.2 68.4---
2024-07-13 05:36 pm SE 8.0 9.9----30.12- 73.4 68.2 68.4---
2024-07-13 05:30 pmSSE 8.0 9.9----30.12-- 68.2----
2024-07-13 05:24 pmSSE 6.0 9.9----30.12-- 68.2----
2024-07-13 05:18 pmSSE 8.0 8.9----30.13- 72.9 68.2 68.2---
2024-07-13 05:12 pmSSE 7.0 8.9----30.13- 72.7 68.2 68.4---
2024-07-13 05:06 pmSSE 8.0 8.9----30.13- 72.5 68.2 68.4---
2024-07-13 05:00 pmSSE 7.0 8.0----30.12-0.03 72.7 68.2 68.5---
2024-07-13 04:54 pmSSE 7.0 8.0----30.13- 72.5 68.2 68.5---
2024-07-13 04:48 pmSSE 7.0 7.0----30.13- 72.3 68.2 68.7---
2024-07-13 04:42 pmSSE 6.0 7.0----30.14- 72.1 68.2 68.9---
2024-07-13 04:36 pm SE 6.0 6.0----30.14- 72.1 68.2 68.9---
2024-07-13 04:30 pm SE 6.0 7.0----30.14-- 68.2----
2024-07-13 04:24 pm SE 6.0 8.0----30.14-- 68.2----
2024-07-13 04:18 pm SE 7.0 8.0----30.14- 72.1 68.2 68.7---
2024-07-13 04:12 pm SE 7.0 7.0----30.14- 72.1 68.2 68.5---
2024-07-13 04:06 pm SE 6.0 7.0----30.14- 72.0 68.2 68.4---
2024-07-13 04:00 pm SE 6.0 7.0----30.14-0.02- 68.2----
2024-07-13 03:54 pm SE 6.0 8.0----30.15-- 68.2----
2024-07-13 03:48 pm SE 7.0 8.0----30.15-- 68.2----
2024-07-13 03:42 pm SE 6.0 7.0----30.15-- 68.2----
2024-07-13 03:36 pm SE 6.0 7.0----30.15-- 68.2----
2024-07-13 03:30 pm SE 7.0 8.0----30.14- 71.8 68.2 68.5---
2024-07-13 03:24 pm SE 6.0 7.0----30.14- 71.8 68.2 68.7---
2024-07-13 03:18 pm SE 5.1 6.0----30.14- 71.6 68.2 68.7---
2024-07-13 03:12 pm SE 5.1 6.0----30.14- 71.6 68.2 68.7---
2024-07-13 03:06 pm SE 5.1 6.0----30.14- 71.6 68.4 68.7---
2024-07-13 03:00 pm SE 5.1 7.0----30.15-0.01- 68.2----
2024-07-13 02:54 pm SE 6.0 7.0----30.14-- 68.4----
2024-07-13 02:48 pm SE 7.0 8.9----30.15- 71.4 68.4 68.7---
2024-07-13 02:42 pmSSE 8.0 9.9----30.14- 71.4 68.2 68.7---
2024-07-13 02:36 pmSSE 8.0 8.9----30.14- 71.4 68.4 68.7---
2024-07-13 02:30 pmSSE 8.9 9.9----30.15- 71.4 68.2 68.9---
2024-07-13 02:24 pmSSE 8.9 11.1----30.15- 71.2 68.4 68.5---
2024-07-13 02:18 pm SE 8.0 8.9----30.15- 71.4 68.2 68.9---
2024-07-13 02:12 pm SE 8.0 8.9----30.15- 71.2 68.4 68.7---
2024-07-13 02:06 pm SE 8.0 9.9----30.16- 71.2 68.2 68.7---
2024-07-13 02:00 pm SE 8.0 8.9----30.16-0.01 71.2 68.4 68.7---
2024-07-13 01:54 pm SE 8.0 8.0----30.16- 71.1 68.2 68.4---
2024-07-13 01:48 pm SE 8.0 8.9----30.16-------
2024-07-13 01:42 pm SE 8.9 9.9----30.16-------
2024-07-13 01:36 pmSSE 8.9 11.1----30.16-------
2024-07-13 01:30 pmSSE 8.0 8.9----30.16- 71.1 68.2 68.5---
2024-07-13 01:24 pmSSE 8.9 8.9----30.16- 70.9 68.2 68.2---
2024-07-13 01:18 pm SE 8.0 8.0----30.16- 70.9 68.2 68.2---
2024-07-13 01:12 pmSSE 7.0 8.0----30.16- 70.7 68.2 67.8---
2024-07-13 01:06 pm SE 7.0 8.0----30.16- 70.9 68.2 68.0---
2024-07-13 01:00 pm-------30.16-0.01- 68.2----
2024-07-13 12:54 pm-------30.16-- 68.2----
2024-07-13 12:48 pm SE 6.0 7.0----30.16- 70.7 68.2 68.2---
2024-07-13 12:42 pm SE 6.0 7.0----30.16- 70.7 68.2 68.0---
2024-07-13 12:36 pm SE 7.0 8.0----30.17- 70.7 68.2 68.2---
2024-07-13 12:30 pm SE 7.0 8.9------ 70.7 68.0 68.2---
2024-07-13 12:24 pm SE 8.0 8.9------ 70.7 68.2 68.2---
2024-07-13 12:18 pm SE 8.0 8.0----30.17-------
2024-07-13 12:12 pm SE 8.0 8.0----30.17-------
2024-07-13 12:06 pm SE 8.0 8.9----30.16-------
2024-07-13 12:00 pm SE 8.0 8.9----30.16+0.00 70.3 68.0 67.6---
2024-07-13 11:54 am SE 8.0 8.9----30.16- 70.3 68.0 67.6---
2024-07-13 11:48 am SE 8.0 8.0----30.16- 70.5 68.0 67.6---
2024-07-13 11:42 am SE 7.0 8.0----30.16- 70.9 68.2 68.0---
2024-07-13 11:36 am SE 7.0 7.0----30.16- 70.9 68.0 67.8---
2024-07-13 11:30 am SE 7.0 8.9----30.16- 70.7 68.0 67.8---
2024-07-13 11:24 am SE 7.0 8.0----30.16- 70.7 68.2 67.8---
2024-07-13 11:18 am SE 7.0 8.0----30.16- 70.5 68.2 67.8---
2024-07-13 11:12 am SE 7.0 8.0----30.16- 70.3 68.2 67.8---
2024-07-13 11:06 am SE 8.0 8.0----30.16- 70.3 68.0 67.6---
2024-07-13 11:00 am SE 8.0 8.9----30.16+0.00 70.7 68.2 67.8---
2024-07-13 10:54 am SE 7.0 7.0----30.17- 70.9 68.0 68.0---
2024-07-13 10:48 am SE 6.0 7.0----30.16- 71.2 68.2 68.0---
2024-07-13 10:42 amESE 4.1 5.1----30.16- 72.0 68.0 68.4---
2024-07-13 10:36 amESE 2.9 4.1----30.17- 72.7 68.2 68.4---
2024-07-13 10:30 amESE 4.1 5.1----30.17- 72.9 68.0 67.3---
2024-07-13 10:24 am NE 1.9 1.9----30.16- 76.6 68.0 68.5---
2024-07-13 10:18 amESE 1.9 2.9----30.17- 75.0 68.0 68.5---
2024-07-13 10:12 amESE 2.9 5.1----30.17- 73.9 68.0 68.5---
2024-07-13 10:06 am E 4.1 5.1----30.17- 73.0 68.0 67.8---
2024-07-13 10:00 am E 2.9 2.9----30.17+0.01 74.1 68.0 68.2---
2024-07-13 09:54 am E 2.9 5.1----30.17- 74.1 68.0 68.2---
2024-07-13 09:48 amSSW 2.9 4.1----30.17- 75.7 68.0 68.5---
2024-07-13 09:42 am SW 2.9 5.1----30.17- 75.7 68.0 68.5---
2024-07-13 09:36 am SW 4.1 5.1----30.17- 75.2 68.0 68.2---
2024-07-13 09:30 amWSW 5.1 6.0----30.17- 75.0 68.0 67.8---
2024-07-13 09:24 amWSW 2.9 6.0----30.16- 74.8 68.0 67.8---
2024-07-13 09:18 amWSW 5.1 7.0----30.16- 74.3 68.0 67.1---
2024-07-13 09:12 am SW 2.9 6.0----30.16- 73.9 68.0 67.6---
2024-07-13 09:06 am SW 2.9 5.1----30.16- 73.8 68.0 67.5---
2024-07-13 09:00 am SW 2.9 5.1----30.16+0.02 73.2 68.0 67.3---
2024-07-13 08:54 amWSW 4.1 5.1----30.16- 72.5 68.0 66.9---
2024-07-13 08:48 amWSW 4.1 7.0----30.16- 72.3 68.0 66.7---
2024-07-13 08:42 amWSW 5.1 6.0----30.16- 72.1 68.0 66.6---
2024-07-13 08:36 amWSW 5.1 6.0----30.16- 71.8 68.0 66.6---
2024-07-13 08:30 amWSW 5.1 7.0----30.16- 71.2 68.0 66.2---
2024-07-13 08:24 amWSW 5.1 7.0----30.16- 70.7 68.0 65.8---
2024-07-13 08:18 amWSW 5.1 7.0----30.16- 70.3 68.0 65.5---
2024-07-13 08:12 amWSW 6.0 7.0----30.17- 70.0 68.0 65.1---
2024-07-13 08:06 amWSW 5.1 7.0----30.16- 69.8 68.0 65.1---
2024-07-13 08:00 am W 5.1 7.0----30.16+0.03 69.6 68.0 64.9---
2024-07-13 07:54 am W 5.1 6.0----30.16- 69.3 68.0 64.9---
2024-07-13 07:48 amWSW 5.1 6.0----30.16-- 68.0----
2024-07-13 07:42 am W 5.1 7.0----30.16-- 68.0----
2024-07-13 07:36 amWSW 6.0 8.0----30.16-- 68.0----
2024-07-13 07:30 amWSW 6.0 8.0----30.16-- 68.0----
2024-07-13 07:24 amWSW 7.0 8.9----30.16-- 68.0----
2024-07-13 07:18 amWSW 6.0 8.0----30.16- 68.4 68.0 64.0---
2024-07-13 07:12 amWSW 6.0 8.0----30.16- 68.2 68.0 63.9---
2024-07-13 07:06 amWSW 7.0 8.0----30.16- 68.0 68.0 63.5---
2024-07-13 07:00 amWSW 6.0 7.0----30.16- 67.8 68.2----
2024-07-13 06:54 amWSW 5.1 6.0----30.16- 67.8 68.2----
2024-07-13 06:48 amWSW 4.1 5.1----30.16- 67.8 68.0 63.3---
2024-07-13 06:42 amWSW 4.1 5.1----30.16- 67.6 68.2 63.1---
2024-07-13 06:36 amWSW 2.9 4.1----30.16- 67.5 68.2 63.1---
2024-07-13 06:30 amWSW 2.9 2.9----30.15- 67.5 68.2 63.0---
2024-07-13 06:24 am SW 2.9 5.1----30.15- 67.6 68.2 63.3---
2024-07-13 06:18 am SW 4.1 5.1----30.15- 67.6 68.2 63.0---
2024-07-13 06:12 am SW 5.1 7.0----30.15- 67.6 68.2 62.8---
2024-07-13 06:06 am SW 6.0 7.0----30.15- 67.8 68.2 63.0---
2024-07-13 06:00 am SW 6.0 7.0----30.14+0.00- 68.2----
2024-07-13 05:54 amWSW 5.1 6.0----30.14-- 68.0----
2024-07-13 05:48 amWSW 5.1 7.0----30.14-- 68.0----
2024-07-13 05:42 am SW 5.1 6.0----30.14-- 68.2----
2024-07-13 05:36 am SW 5.1 5.1----30.14-- 68.2----
2024-07-13 05:30 am SW 5.1 6.0----30.14- 66.7 68.2 62.4---
2024-07-13 05:24 am SW 6.0 8.0----30.14- 67.5 68.0 62.8---
2024-07-13 05:18 amSSW 6.0 8.0----30.14- 67.5 68.2 63.1---
2024-07-13 05:12 am SW 5.1 6.0----30.14- 66.7 68.2 62.6---
2024-07-13 05:06 am SW 5.1 6.0----30.14- 66.9 68.2 62.6---
2024-07-13 05:00 am SW 5.1 7.0----30.14-0.01 66.9 68.2 62.6---
2024-07-13 04:54 am SW 6.0 7.0----30.14- 66.9 68.2 62.6---
2024-07-13 04:48 am SW 6.0 7.0----30.14- 67.1 68.2 62.8---
2024-07-13 04:42 am SW 5.1 6.0----30.14- 66.2 68.0 62.1---
2024-07-13 04:36 am SW 5.1 6.0----30.14- 66.2 68.0 62.1---
2024-07-13 04:30 am-------30.14- 66.4 68.0 62.1---
2024-07-13 04:24 am-------30.14- 66.4 68.0 62.1---
2024-07-13 04:18 amSSW 4.1 5.1----30.14- 66.4 68.0 62.1---
2024-07-13 04:12 amSSW 2.9 2.9----30.14- 66.2 68.2 62.1---
2024-07-13 04:06 amSSW 2.9 4.1----30.14- 66.6 68.0 62.2---
2024-07-13 04:00 amSSW 2.9 4.1------ 66.4 68.2 62.1---
2024-07-13 03:54 amSSW 2.9 5.1------ 66.4 68.0 62.4---
2024-07-13 03:48 am S 2.9 4.1----30.14- 66.0 68.2 62.2---
2024-07-13 03:42 am S 2.9 4.1----30.14- 66.2 68.0 62.6---
2024-07-13 03:36 amSSW 1.9 2.9----30.14- 65.8 68.2 62.2---
2024-07-13 03:30 am S 1.9 2.9----30.14- 65.8 68.2 62.2---
2024-07-13 03:24 am S 1.9 2.9----30.14- 65.7 68.2 62.1---
2024-07-13 03:18 amSSW 1.9 1.9----30.14- 65.5 68.0 62.2---
2024-07-13 03:12 am S 1.9 2.9----30.14- 65.3 68.2 62.1---
2024-07-13 03:06 amSSW 1.9 2.9----30.14- 65.5 68.0 62.2---
2024-07-13 03:00 am SW 2.9 4.1----30.14-0.01 65.1 68.2 61.9---
2024-07-13 02:54 amSSW 2.9 4.1----30.14- 65.5 68.0 61.7---
2024-07-13 02:48 am SW 2.9 2.9----30.14- 65.8 68.0 61.9---
2024-07-13 02:42 am SW 1.9 1.9----30.14- 66.2 67.8 62.2---
2024-07-13 02:36 am- 0.0 1.9----30.14- 66.4 68.0 62.8---
2024-07-13 02:30 am SE 1.0 2.9----30.14- 66.2 67.8 62.6---
2024-07-13 02:24 am S 1.9 2.9----30.14- 66.2 67.8 62.4---
2024-07-13 02:18 am SW 1.9 2.9----30.14- 66.2 67.6 62.4---
2024-07-13 02:12 am SW 2.9 4.1----30.14- 66.4 67.6 62.2---
2024-07-13 02:06 am SW 4.1 5.1----30.14- 66.7 67.6 62.4---
2024-07-13 02:00 am SW 4.1 5.1----30.15+0.00 66.7 67.8 62.6---
2024-07-13 01:54 am SW 4.1 5.1----30.15- 66.7 67.6 62.8---
2024-07-13 01:48 amWSW 2.9 6.0----30.14- 66.6 67.8 63.0---
2024-07-13 01:42 am SW 4.1 6.0----30.15- 66.6 67.6 63.1---
2024-07-13 01:36 am SW 5.1 6.0----30.15- 66.4 67.6 63.1---
2024-07-13 01:30 am SW 5.1 5.1----30.15- 66.7 67.8 63.7---
2024-07-13 01:24 amSSW 4.1 4.1----30.15- 66.6 67.6 63.7---
2024-07-13 01:18 amSSW 4.1 4.1----30.15- 66.4 67.8 63.5---
2024-07-13 01:12 amSSW 4.1 5.1----30.15- 66.2 67.6 63.0---
2024-07-13 01:06 amSSW 4.1 5.1----30.15- 66.6 67.8 63.0---
2024-07-13 01:00 am SW 2.9 2.9----30.15+0.01 66.7 67.6 63.1---
2024-07-13 12:54 amSSW 1.0 1.9----30.15- 66.6 67.6 63.3---
2024-07-13 12:48 am S 1.9 4.1----30.15- 66.6 67.6 63.1---
2024-07-13 12:42 amSSW 1.9 4.1----30.14- 66.7 67.6 63.1---
2024-07-13 12:36 amSSW 4.1 5.1----30.14- 67.1 67.6 63.0---
2024-07-13 12:30 amSSW 2.9 4.1----30.14- 67.6 67.6 63.5---
2024-07-13 12:24 amSSW 1.9 1.9----30.14- 67.6 67.6 63.7---
2024-07-13 12:18 amSSW 1.9 2.9----30.14- 67.5 67.6 63.9---
2024-07-13 12:12 amSSW 2.9 5.1----30.14- 67.3 67.6 63.9---
2024-07-13 12:06 amSSW 4.1 5.1----30.14- 67.3 67.6 64.0---
2024-07-13 12:00 amSSW 4.1 5.1----30.15+0.03 67.3 67.6 64.0---
2024-07-12 11:54 pm S 2.9 5.1----30.15- 67.3 67.6 64.2---
2024-07-12 11:48 pm S 2.9 5.1----30.15- 67.3 67.6 64.0---
2024-07-12 11:42 pm S 2.9 2.9----30.14- 67.5 67.6 64.4---
2024-07-12 11:36 pmSSE 1.9 2.9----30.14- 67.3 67.6 64.4---
2024-07-12 11:30 pm S 2.9 4.1----30.14- 67.3 67.8 64.2---
2024-07-12 11:24 pmSSW 2.9 4.1----30.14- 67.3 67.8 64.2---
2024-07-12 11:18 pm S 2.9 4.1----30.14- 67.8 67.6 64.8---
2024-07-12 11:12 pmSSW 2.9 4.1----30.14- 67.8 67.8 64.8---
2024-07-12 11:06 pm S 2.9 5.1----30.14- 68.2 67.8 65.1---
2024-07-12 11:00 pm S 4.1 6.0----30.14+0.02 68.4 67.8 65.3---
2024-07-12 10:54 pm S 4.1 5.1----30.14- 68.4 67.6 65.1---
2024-07-12 10:48 pm S 4.1 5.1----30.14- 68.7 67.8 65.3---
2024-07-12 10:42 pm S 2.9 5.1----30.14- 68.9 67.8 65.5---
2024-07-12 10:36 pm S 2.9 4.1----30.14- 68.5 67.6 65.1---
2024-07-12 10:30 pm S 1.9 2.9----30.14- 68.7 67.6 65.3---
2024-07-12 10:24 pmSSW 2.9 4.1----30.14- 68.7 67.6 65.7---
2024-07-12 10:18 pmSSW 2.9 5.1----30.14- 68.7 67.6 65.8---
2024-07-12 10:12 pmSSE 4.1 5.1----30.14- 68.9 67.6 65.7---
2024-07-12 10:06 pmSSE 2.9 4.1----30.14- 68.9 67.6 65.5---
2024-07-12 10:00 pm S 2.9 2.9----30.13+0.02 68.9 67.6 65.5---
2024-07-12 09:54 pm S 2.9 4.1----30.13- 69.1 67.6 65.7---